Lid_Strength_Index
14 16 17 16 15 16 15 16 17 17 15 16 16 16 15 14 14 12 12 11 7 6 4 3 3 3 2 2 2 2 2 2 1 1 1 1 1 0 -0 -0 -0 -0 1 1
15 17 14 13 15 15 16 17 17 17 16 16 17 16 15 15 14 12 11 11 11 9 7 6 4 4 3 2 2 2 2 2 1 1 1 1 0 -0 -0 -0 -0 -0 0 1
16 14 13 14 16 16 17 17 17 17 17 17 18 18 16 15 15 14 13 11 10 10 9 8 8 6 4 3 2 2 2 2 2 1 2 3 2 1 1 0 -0 0 0 1
15 14 14 15 16 16 17 15 15 16 17 19 18 21 17 16 15 15 13 13 11 10 10 10 10 10 8 4 1 1 2 2 2 2 2 2 2 2 1 1 0 -0 -0 -0
16 15 15 16 15 14 15 15 16 17 18 20 20 20 19 18 17 15 14 13 10 9 10 10 11 10 10 7 2 1 1 1 2 2 2 2 2 1 2 2 1 0 0 0
15 13 13 13 14 14 15 16 17 19 19 21 19 19 20 19 16 15 14 13 11 11 11 11 11 10 9 8 5 3 2 2 2 1 1 2 2 2 3 3 2 1 1 1
17 16 15 14 16 15 16 17 21 21 22 22 21 21 18 16 16 15 15 14 14 13 13 12 11 10 9 7 7 6 5 4 4 2 2 2 2 2 3 2 2 2 2 2
18 19 16 15 15 16 16 16 20 24 24 22 20 21 18 16 15 14 15 15 14 13 12 12 11 9 8 7 7 6 7 6 7 7 3 1 2 2 2 2 2 2 2 3
18 18 15 15 14 13 16 18 16 20 27 23 21 20 17 15 16 16 15 15 14 14 12 12 10 9 8 7 7 6 6 6 7 7 8 7 2 1 2 2 2 3 4 5
16 18 15 14 13 14 15 14 17 19 24 25 22 21 20 17 16 16 15 15 14 14 13 11 10 10 9 8 7 7 6 6 5 5 5 7 5 2 2 2 4 5 5 6
15 16 17 14 15 16 16 17 17 17 19 23 25 21 18 17 15 15 15 14 14 13 13 12 11 10 9 9 8 8 7 6 6 5 5 5 4 3 3 3 4 6 6 6
15 15 18 17 15 14 15 15 15 18 21 21 21 20 16 17 16 15 15 14 14 13 12 11 11 11 10 10 9 8 8 8 7 6 6 5 6 6 6 6 7 7 7 7
13 17 19 17 15 14 16 16 15 17 17 20 21 20 16 16 16 14 13 14 13 13 12 12 12 11 11 10 10 10 9 9 8 7 7 7 7 7 8 9 9 9 10 10
10 14 16 19 18 15 16 16 15 15 18 19 18 19 18 15 16 14 13 13 13 12 12 12 12 12 11 11 11 11 10 9 8 8 8 8 8 8 9 10 10 11 11 11
11 15 16 17 16 14 15 15 14 14 14 17 16 17 15 14 14 14 13 12 13 13 12 13 12 12 12 12 12 11 11 11 10 9 9 9 10 11 11 12 12 13 13 13
14 19 17 19 16 15 16 15 14 14 14 14 15 17 16 14 15 15 13 13 13 13 13 13 12 12 12 11 11 11 11 12 11 10 10 12 12 13 13 14 14 14 14 14
14 17 18 21 16 15 18 16 15 14 14 14 16 15 14 15 14 14 13 13 13 13 13 13 12 11 11 11 11 11 12 12 12 12 12 13 13 13 14 14 14 15 15 15
14 14 15 19 16 20 16 15 13 14 13 13 13 15 14 13 13 13 13 13 13 13 12 13 12 12 11 11 12 12 12 13 13 13 14 14 14 14 15 15 15 16 15 15
12 14 18 19 24 18 16 16 16 15 15 13 13 13 14 13 15 14 13 13 12 12 12 12 11 11 11 11 12 12 13 13 13 13 14 14 14 15 15 16 16 16 16 16
13 12 15 22 23 22 17 14 14 13 17 13 13 13 13 14 16 13 12 12 13 13 13 12 12 12 12 13 13 13 14 14 13 13 14 14 15 15 15 16 17 18 16 16
17 17 16 21 23 20 16 15 13 17 17 14 14 13 14 15 13 13 13 13 13 13 13 12 13 13 13 14 14 14 14 14 13 15 16 16 15 15 16 17 18 17 17 16
17 17 18 23 18 19 15 15 14 14 14 13 13 14 14 14 13 13 13 13 14 14 14 15 15 14 15 15 15 15 15 15 16 16 16 16 17 16 17 17 18 17 17 18
15 14 17 14 15 14 15 15 13 12 13 14 13 13 13 13 14 14 14 15 15 16 17 18 19 18 18 18 17 16 17 17 18 17 17 17 18 18 17 17 18 18 18 17
14 15 15 14 14 14 13 13 13 13 13 13 12 13 13 13 14 15 16 15 16 18 18 20 19 18 19 21 19 20 19 19 18 17 19 19 18 19 18 17 17 17 18 18
14 12 15 17 15 14 14 13 13 13 13 13 13 13 13 13 14 15 17 17 17 18 19 20 19 19 19 21 21 22 20 20 20 20 20 19 19 19 19 18 17 17 16 16
13 14 14 15 13 12 13 12 12 13 14 14 14 15 15 15 15 16 17 18 19 19 20 20 21 21 21 22 22 23 22 20 21 20 20 20 20 19 19 18 18 15 15 14